Home   Weather   Salina   Past weeks

Flag for USA Past Weather in Salina, Kansas, USA — Yesterday and Last 2 Weeks

Now
36 °F

Fog.


Feels Like: 28 °F
Forecast: 31 / 34 °F
Wind: 10 mph from Northwest

Location: Salina Municipal Airport

Current Time: Jan 16, 2017 at 4:20:14 pm

Latest Report: Jan 16, 2017 at 3:53 pm


Visibility: 3 mi

Pressure: 29.89 "Hg

Humidity: 92%

Dew Point: 34 °F

Location of SalinaLocation

Past Weather in Salina — Graph

°F

Salina Temperature Yesterday

Maximum temperature yesterday: 32 °F (at 2:53 pm)
Minimum temperature yesterday: 30 °F (at 7:03 am)
Average temperature yesterday: 31 °F

High & Low Weather Summary for the Past Weeks

 TemperatureHumidityPressure
High63 °F (Jan 2, 1:53 pm)100% (Jan 6, 1:53 pm)30.74 "Hg (Jan 6, 1:53 pm)
Low2 °F (Jan 6, 3:53 am)4% (Jan 10, 1:53 pm)29.49 "Hg (Jan 10, 6:53 am)
Average28 °F68%30.15 "Hg
* Reported Jan 1 2:53 pm — Jan 16 2:53 pm, Salina, Weather by CustomWeather, © 2017

Note: Actual official high and low records may vary slightly from our data, if they occured in-between our weather recording intervals... More about our weather records

Advertising

Salina Weather History for the Previous 24 Hours

Scroll right to see more
 ConditionsComfort  
Time TempWeatherWind HumidityBarometerVisibility
2:53 pm
Mon, Jan 16
36 °FLight rain. Fog.9 mph92%29.84 "Hg1 mi
1:53 pm36 °FLight rain. Fog.8 mph92%29.84 "Hg1 mi
12:53 pm36 °FFog.7 mph92%29.84 "Hg1 mi
10:53 am34 °FFog.9 mph100%29.87 "Hg1 mi
9:53 am34 °FFog.8 mph92%29.87 "Hg1 mi
9:39 am34 °FFog.7 mph92%29.83 "Hg1 mi
8:53 am34 °FFog.7 mph92%29.83 "Hg2 mi
7:53 am34 °FFog.9 mph92%29.83 "Hg4 mi
6:53 am34 °FRain. Fog.6 mph92%29.85 "Hg4 mi
10:53 pm
Sun, Jan 15
32 °FIce fog.9 mph92%30.09 "Hg3 mi
9:53 pm32 °FIce fog.10 mph92%30.09 "Hg3 mi
8:53 pm32 °FIce fog.8 mph92%30.10 "Hg3 mi
7:53 pm32 °FIce fog.6 mph92%30.12 "Hg5 mi
6:53 pm32 °FIce fog.7 mph92%30.11 "Hg5 mi
5:53 pm32 °FIce fog.7 mph92%30.11 "Hg5 mi
4:53 pm32 °FIce fog.7 mph92%30.12 "Hg5 mi
4:39 pm32 °FIce fog.9 mph92%30.14 "Hg5 mi
4:07 pm32 °FLight freezing rain. Ice fog.9 mph92%30.14 "Hg5 mi
Weather by CustomWeather, © 2017

See weather overviewHow to use our weather pages